Regional Weather Roundup
Issued by NWS

Home | Current Version | Previous Version | Text Only | Print | Product List | Glossary On
Versions: 1 2 3 4 5 6 7 8 9 10 11 12 13 14 15 16 17 18 19 20 21 22 23 24 25 26 27
000
ASUS45 KTFX 220110
RWRMT
MONTANA REGIONAL WEATHER ROUNDUP
NATIONAL WEATHER SERVICE GREAT FALLS MT
600 PM MST SAT JAN 21 2017

NOTE: "FAIR" INDICATES FEW OR NO CLOUDS BELOW 12000 FEET WITH NO
SIGNIFICANT WEATHER AND/OR OBSTRUCTIONS TO VISIBILITY.

MTZ001>007-043-220200-
WEST OF THE DIVIDE

CITY           SKY/WX    TMP DP  RH WIND       PRES   REMARKS
KALISPELL      LGT SNOW  26  24  92 CALM      29.66R FOG
MISSOULA       MOCLDY    24  23  96 CALM      29.67R FOG
BUTTE          CLOUDY    21  15  78 CALM      29.59R
MULLAN PASS    FOG       25  23  92 S5        29.54R VSB 1/2
ANACONDA         N/A     25  18  74 CALM      29.62R
DEER LODGE       N/A     21  18  86 CALM      29.64R
EUREKA           N/A     27  23  86 CALM      29.67R
HAMILTON         N/A     27  23  86 CALM      29.64
PLAINS           N/A     24  19  81 CALM      29.69R
RONAN            N/A     26  24  92 CALM      29.71R
$$

MTZ008-052>055-220200-
SOUTHWEST MONTANA

CITY           SKY/WX    TMP DP  RH WIND       PRES   REMARKS
BOZEMAN        CLOUDY    21  14  74 CALM      29.61R
DILLON         CLOUDY    33  16  49 S5        29.60R
W YELLOWSTONE  CLOUDY    25  21  86 SW6       29.60R WCI  18
ENNIS          CLOUDY    32  23  69 S9        29.64R WCI  24
TWIN BRIDGES     N/A     21  11  65 E5        29.65R
$$

MTZ009-010-012-014-046-048-049-054-220200-
EAST SLOPES AND CENTRAL MONTANA

CITY           SKY/WX    TMP DP  RH WIND       PRES   REMARKS
CUT BANK       MOCLDY    26  21  81 N10       29.56R WCI  16
GREAT FALLS    CLEAR     24  19  81 W6        29.57R WCI  17
MALMSTROM AFB  CLEAR     31  23  73 W6        29.58R WCI  25
HELENA         CLEAR     13   9  84 CALM      29.62R
AUGUSTA          N/A     29  22  75 CALM      29.56R
BOWMANS CRNR     N/A     29  20  69 SW3       29.55R
CHOTEAU          N/A     30  25  80 W3        29.59R
CONRAD           N/A     26  23  88 W3        29.63R
POWER            N/A     18  16  92 MISG      29.57R
RAYNESFORD       N/A     27  19  72 SW3       29.57R
ULM              N/A     27  20  77 MISG      29.58R
$$

MTZ011-013-016-021-045-047-050-051-220200-
NORTH CENTRAL MONTANA

CITY           SKY/WX    TMP DP  RH WIND       PRES   REMARKS
HAVRE          CLEAR     26  24  92 SW13      29.57R WCI  15
LEWISTOWN      CLOUDY    24  19  81 SW8       29.56R WCI  15
CHINOOK          N/A     28  25  86 W7        29.58R WCI  21
DENTON         MOCLDY    29  22  75 S8        29.54R WCI  21
FORT BENTON      N/A     28  23  80 MISG      29.60R
GEYSER           N/A     27  21  77 W10       29.55R WCI  18
GRASS RANGE      N/A     30  22  73 SW13      29.52R WCI  20
JUDITH GAP       N/A     26  18  71 NW7       29.55R WCI  18
ROY              N/A     30  24  78 MISG      29.54R
STANFORD         N/A     27  22  81 NW6       29.55R WCI  20
WINIFRED         N/A     28  23  80 SW6       29.55R WCI  22
$$

MTZ017>020-022>027-061-062-220200-
NORTHEAST MONTANA

CITY           SKY/WX    TMP DP  RH WIND       PRES   REMARKS
GLASGOW        CLEAR     22  18  85 S3        29.52R
JORDAN           N/A     28  24  85 W7        29.53R WCI  21
SIDNEY         CLEAR     21  18  88 CALM      29.53R
WOLF POINT     CLEAR     20  16  84 W7        29.54R WCI  11
PLENTYWOOD       N/A     30  28  93 W17       29.49R WCI  18
POPLAR           N/A     19  16  86 N7        29.54R WCI  10
SCOBEY           N/A     29  23  78 W9        29.52R WCI  21
$$

MTZ028>42-056>058-220200-
SOUTHCENTRAL AND SOUTHEAST MONTANA

CITY           SKY/WX    TMP DP  RH WIND       PRES   REMARKS
BAKER          CLEAR     24  20  84 SW16      29.53R WCI  11
BILLINGS       PTCLDY    32  20  61 SW16      29.56R WCI  21
LIVINGSTON     CLOUDY    26  16  65 W5        29.57R
MILES CITY     CLEAR     21  18  88 S5        29.54R
BIG TIMBER     PTCLDY    32  18  55 SW16      29.58R WCI  21
FORSYTH          N/A     25  23  93 CALM      29.56R
HARLOWTON        N/A     28  18  66 N9        29.56R WCI  19
LAUREL           N/A     28  16  61 S2        29.59R
$$

REGIONAL REPORTS...DAKOTAS

CITY           SKY/WX    TMP DP  RH WIND       PRES   REMARKS
WILLISTON      CLOUDY    30  28  92 NW14      29.52R WCI  19
MINOT          CLOUDY    27  25  92 W7        29.47R WCI  19
DICKINSON      CLEAR     24  19  81 W16       29.47R WCI  11
BEACH            N/A     23  21  93 SW8       29.54R WCI  14
CROSBY         CLOUDY    27  27 100 CALM      29.50R FOG
TIOGA          CLOUDY    28  28 100 W13       29.49R FOG     WCI  18
WATFORD CITY     N/A     21  19  93 SW5       29.51R
BISMARCK       CLOUDY    29  27  92 W3        29.51R
GRAND FORKS    LGT RAIN  35  33  92 E3        29.51R FOG
FARGO          CLOUDY    37  34  89 CALM      29.51R
BUFFALO SD       N/A     30  25  81 W5        29.47R
RAPID CITY     CLEAR     28  24  85 W6        29.54R WCI  22
$$

REGIONAL REPORTS...WYOMING/IDAHO/WASHINGTON

CITY           SKY/WX    TMP DP  RH WIND       PRES   REMARKS
GILLETTE       CLOUDY    28  25  88 CALM      29.53R
SHERIDAN       CLOUDY    23  17  78 SW13      29.55R WCI  11
BUFFALO WY     CLOUDY    27  19  72 W6        29.54R WCI  20
CODY           CLOUDY    24  17  74 CALM      29.57R
YELLOWSTONE LA   N/A     22  18  85 CALM      29.61R
IDAHO FALLS    CLOUDY    30  28  92 SW17      29.71R WCI  18
SALMON         CLOUDY    18  14  86 CALM      29.68R
BOISE          CLOUDY    36  31  82 SE3       29.72R
SPOKANE        MOCLDY    36  31  82 NE8       29.59R WCI  30
$$

REGIONAL REPORTS...ALBERTA

CITY           SKY/WX    TMP DP  RH WIND       PRES   REMARKS
EDMONTON       CLOUDY    21  18  86 N9        29.73R VSB 3/4 WCI  11
CALGARY        PTCLDY    25  19  80 N8        29.61R WCI  16
LETHBRIDGE     MOCLDY    27  23  86 W6        29.59R WCI  20
MEDICINE HAT   FRZ DRZL  28  27  93 W8        29.60R VSB 3/4 WCI  20
WATERTON GATE    N/A     28  18  64 NE3         N/A
CARDSTON         N/A     28  21  74 S2          N/A
MILK RIVER       N/A     23  21  93 NW6         N/A  WCI  16
ONEFOUR          N/A     23  23 100 NW16        N/A  WCI  10
$$

REGIONAL REPORTS...SASKATCHEWAN

CITY           SKY/WX    TMP DP  RH WIND       PRES   REMARKS
SWIFT CURRENT  FRZ RAIN  27  27 100 NW15      29.51R VSB 5/8 WCI  15
REGINA         FLURRIES  25  23  93 NW10      29.49R WCI  15
SASKATOON      FLURRIES  28  27  93 N8        29.54R WCI  20
CYPRESS HILLS    N/A     25  23  93 NW9         N/A  WCI  15
VAL MARIE        N/A     25  23  93 N7          N/A  WCI  17
ROCKGLEN         N/A     28  27  93 NW10        N/A  WCI  19
ASSINIBOIA       N/A     25  23  93 N12         N/A  WCI  14
$$




USA.gov is the U.S. government's official web portal to all federal, state and local government web resources and services.